This is the latest recevied weather packets stored in our database for station/object K9UO. If no packets are shown the sender has not sent any weather packets the latest 10 day(s).
| Time | Temp. | Humidity | Pressure | Rain* | Wind** | Luminosity | Snow |
|---|---|---|---|---|---|---|---|
| 1777496414 | 15° C | 52% | 1010.3 hPa | 0 mm | - | - | - |
| 1777495510 | 15° C | 51% | 1010.3 hPa | 0 mm | - | - | - |
| 1777494608 | 15° C | 52% | 1010.4 hPa | 0 mm | - | - | - |
| 1777493765 | 15° C | 50% | 1010.4 hPa | 0 mm | - | - | - |
| 1777492856 | 15.56° C | 46% | 1010.3 hPa | 0 mm | - | - | - |
| 1777491952 | 16.11° C | 40% | 1010.1 hPa | 0 mm | - | - | - |
| 1777491075 | 15.56° C | 24% | 1010 hPa | 0 mm | - | - | - |
| 1777490142 | 14.44° C | 1% | 1010 hPa | 0 mm | - | - | - |
| 1777489239 | 13.89° C | 1% | 1009.9 hPa | 0 mm | - | - | - |
| 1777488334 | 13.89° C | 1% | 1010 hPa | 0 mm | - | - | - |
| 1777487429 | 14.44° C | 1% | 1009.8 hPa | 0 mm | - | - | - |
| 1777486525 | 14.44° C | 1% | 1009.8 hPa | 0 mm | - | - | - |
| 1777485621 | 15° C | 3% | 1009.8 hPa | 0 mm | - | - | - |
| 1777484721 | 15° C | 1% | 1009.8 hPa | 0 mm | - | - | - |
| 1777483813 | 13.33° C | 1% | 1010 hPa | 0 mm | - | - | - |
| 1777482907 | 12.78° C | 1% | 1010.1 hPa | 0 mm | - | - | - |
| 1777482012 | 12.22° C | 1% | 1010.2 hPa | 0 mm | - | - | - |
| 1777481170 | 12.78° C | 1% | 1010.3 hPa | 0 mm | - | - | - |
| 1777480255 | 13.33° C | 1% | 1010.3 hPa | 0 mm | - | - | - |
| 1777479365 | 13.33° C | 1% | 1010.4 hPa | 0 mm | - | - | - |
| 1777478448 | 12.78° C | 1% | 1010.5 hPa | 0 mm | - | - | - |
| 1777477542 | 12.78° C | 1% | 1010.7 hPa | 0 mm | - | - | - |
| 1777476636 | 12.22° C | 1% | 1010.7 hPa | 0 mm | - | - | - |
| 1777475733 | 12.22° C | 1% | 1010.7 hPa | 0 mm | - | - | - |
| 1777474839 | 12.22° C | 1% | 1010.7 hPa | 0 mm | - | - | - |
* Rain latest hour (hover to see other rain measurements)
** Current wind speed in m/s (hover to see current wind gust speed)